Change the Weather History Date:

Thursday, May 9, 2013

  Actual Average Record
Temperature  
Mean Temperature 70 °F -  
Max Temperature 81 °F 78 °F 91 °F (1986)
Min Temperature 60 °F 53 °F 38 °F (1924)
Cooling Degree Days 6    
Growing Degree Days 20 (Base 50)    
Moisture  
Dew Point 60 °F    
Average Humidity 74    
Maximum Humidity 94    
Minimum Humidity 45    
Precipitation  
Precipitation 0.00 in - - ()
Sea Level Pressure  
Sea Level Pressure 29.95 in    
Wind  
Wind Speed 5 mph (SSW)    
Max Wind Speed 18 mph    
Max Gust Speed 26 mph    
Visibility 8 miles    
Events      
Averages and records for this station are not official NWS values.
T = Trace of Precipitation, MM = Missing Value Source: NWS Daily Summary

Daily Weather History Graph

Daily Weather History Graph

Search for Another Location

Airport or City:

Trip Planner

Search our weather history database for the weather conditions in past years. The results will help you decide how hot, cold, wet, or windy it might be!

Date:

Astronomy

May. 09, 2013 Rise Set
Actual Time 5:58 AM CDT 7:57 PM CDT
Civil Twilight 5:30 AM CDT 8:25 PM CDT
Nautical Twilight 4:55 AM CDT 9:00 PM CDT
Astronomical Twilight 4:18 AM CDT 9:37 PM CDT
Moon 5:42 AM CDT (5/9) 7:52 PM CDT (5/9)
Length of Visible Light 14h 55m
Length of Day
13h 58m
Waning Crescent, 0% of the Moon is Illuminated
May 9
Waning Crescent
May 9
New
May 17
First Quarter
May 24
Full
May 31
Last Quarter

Hourly Weather History & Observations

Time (CDT) Temp. Heat Index Dew Point Humidity Pressure Visibility Wind Dir Wind Speed Gust Speed Precip Events Conditions
12:53 AM 64.0 °F - 61.0 °F 90% 30.00 in 9.0 mi Calm Calm - N/A   Overcast
1:53 AM 63.0 °F - 61.0 °F 93% 29.98 in 8.0 mi Calm Calm - N/A   Mostly Cloudy
2:53 AM 62.1 °F - 60.1 °F 93% 29.98 in 4.0 mi Calm Calm - N/A   Partly Cloudy
3:53 AM 62.1 °F - 59.0 °F 90% 29.97 in 7.0 mi Calm Calm - N/A   Clear
4:01 AM 60.8 °F - 59.0 °F 94% 29.98 in 1.8 mi Calm Calm - N/A   Clear
4:09 AM 60.8 °F - 59.0 °F 94% 29.98 in 3.0 mi Calm Calm - N/A   Clear
4:53 AM 61.0 °F - 59.0 °F 93% 29.98 in 4.0 mi Calm Calm - N/A   Mostly Cloudy
5:53 AM 61.0 °F - 59.0 °F 93% 29.98 in 4.0 mi Calm Calm - N/A   Scattered Clouds
6:53 AM 63.0 °F - 59.0 °F 87% 29.98 in 9.0 mi Calm Calm - N/A   Clear
7:53 AM 66.0 °F - 61.0 °F 84% 29.98 in 10.0 mi SSE 4.6 mph - 0.00 in   Overcast
8:53 AM 71.1 °F - 62.1 °F 73% 29.98 in 10.0 mi South 9.2 mph - N/A   Clear
9:53 AM 71.1 °F - 62.1 °F 73% 30.00 in 10.0 mi SSW 10.4 mph - N/A   Partly Cloudy
10:53 AM 73.0 °F - 63.0 °F 71% 30.01 in 10.0 mi SSW 11.5 mph - N/A   Scattered Clouds
12:53 PM 77.0 °F - 61.0 °F 58% 29.94 in 10.0 mi South 18.4 mph 24.2 mph N/A   Clear
1:53 PM 80.1 °F 80.9 °F 60.1 °F 50% 29.94 in 10.0 mi South 18.4 mph 24.2 mph N/A   Clear
2:53 PM 81.0 °F 81.3 °F 59.0 °F 47% 29.91 in 10.0 mi South 16.1 mph 21.9 mph N/A   Clear
3:53 PM 81.0 °F 81.1 °F 57.9 °F 45% 29.90 in 10.0 mi SSW 18.4 mph 25.3 mph N/A   Clear
4:53 PM 80.1 °F 80.7 °F 59.0 °F 48% 29.91 in 10.0 mi SSW 16.1 mph 26.5 mph N/A   Partly Cloudy
5:53 PM 79.0 °F - 57.9 °F 48% 29.90 in 10.0 mi SSW 15.0 mph 21.9 mph N/A   Clear
6:53 PM 75.9 °F - 60.1 °F 58% 29.88 in 10.0 mi South 13.8 mph - N/A   Clear
7:53 PM 73.9 °F - 60.1 °F 62% 29.90 in 10.0 mi South 11.5 mph - N/A   Clear
9:53 PM 71.1 °F - 62.1 °F 73% 29.92 in 10.0 mi SSW 9.2 mph - N/A   Clear
10:53 PM 71.1 °F - 63.0 °F 75% 29.92 in 10.0 mi SSW 6.9 mph - N/A   Clear